250  
ASUS42 KCAE 290210  
RWRCAE  
REGIONAL WEATHER ROUNDUP  
NATIONAL WEATHER SERVICE COLUMBIA SC  
900 PM EST WED FEB 28 2024  
 
NOTE: "FAIR" INDICATES FEW OR NO CLOUDS BELOW 12,000 FEET WITH NO  
SIGNIFICANT WEATHER AND/OR S TO VISIBILITY
.  
 
NOT ALL STATIONS ARE QUALITY CONTROLLED BY THE NATIONAL  
WEATHER SERVICE. USE DATA WITH CAUTION...ESPECIALLY  
DEWPOINT OBSERVATIONS.  
 
SCZ001>059-115-116-135>137-GAZ040-063>065-077-290300-   
..UPSTATE SOUTH CAROLINA
 
 
 
CITY SKY/WX TMP DP RH WIND PRES REMARKS
 
ANDERSON CLOUDY 52 32 46 NW13 30.14R  
LIBERTY MOCLDY 51 17 26 NW15G28 30.13R  
SPARTANBURG CLOUDY 50 16 25 NW13G31 30.13R  
CLEMSON PTCLDY 50 26 39 NW8 30.15R  
GREENVILLE MOCLDY 49 32 52 N14G23 30.13R  
GREER MOCLDY 50 14 23 N10G21 30.14R  
ROCK HILL CLOUDY 52 31 44 N15G29 30.10R  
LAURENS CLOUDY 52 32 46 N8G21 30.13R  
 
   
..CENTRAL SOUTH CAROLINA
 
 
 
CITY SKY/WX TMP DP RH WIND PRES REMARKS
 
COLUMBIA APT CLOUDY 63 59 87 W14 30.05R  
COLUMBIA OWENS CLOUDY 63 59 87 W9G23 30.05R  
MCENTIRE ANGB CLOUDY 64 59 85 W10 30.02R  
ORANGEBURG CLOUDY 65 60 84 W8 30.06R  
SUMTER SHAW CLOUDY 64 61 90 W9 30.02R  
AIKEN CLOUDY 60 54 79 W18G24 30.10R  
BARNWELL CLOUDY 63 61 94 W8 30.08R  
MANNING RAIN 63 61 94 W6 30.06R  
CAMDEN LGT RAIN 61 57 88 NW18G29 30.04R  
LANCASTER CLOUDY 57 45 62 NW8 30.08R  
WINNSBORO CLOUDY 54 50 87 NW10G22 30.09R  
 
   
..EASTERN AND COASTAL SOUTH CAROLINA
 
 
 
CITY SKY/WX TMP DP RH WIND PRES REMARKS
 
MYRTLE BEACH CLOUDY 62 60 93 S16 30.00R  
N MYRTLE BCH CLOUDY 61 56 83 SW20G33 29.99R  
CONWAY LGT RAIN 64 55 72 W9G16 30.05R  
MARION LGT RAIN 63 63 100 W14G22 30.02R  
HARTSVILLE CLOUDY 61 61 100 W7G14 30.02R  
FLORENCE LGT RAIN 64 62 93 SW13 30.04R  
DARLINGTON CLOUDY 63 63 100 W12 30.03R  
CHARLESTON APT CLOUDY 66 56 70 S12 30.04R  
MOUNT PLEASANT CLOUDY 66 63 88 SW14G20 30.04R  
WALTERBORO CLOUDY 64 55 72 NW15G21 30.08R  
BEAUFORT CLOUDY 66 57 72 S8 30.04R  
HILTON HEAD CLOUDY 64 57 77 SW9 30.06R  
 
   
..EASTERN GEORGIA
 
 
 
CITY SKY/WX TMP DP RH WIND PRES REMARKS
 
AUGUSTA BUSH F NOT AVBL  
AUGUSTA DANIEL CLOUDY 61 54 77 NW12G28 30.10R  
THOMSON MOCLDY 56 51 84 NW13G23 30.14R  
WASHINGTON CLOUDY 53 40 61 NW14 30.16R  
CLAXTON PTCLDY 73 56 55 SW5 30.05R  
SYLVANIA LGT RAIN 69 62 77 NW10 30.09R  
STATESBORO MOCLDY 71 57 61 NW18G24 30.08R  
SAVANNAH CLOUDY 73 52 47 SW9 30.05R  
 
   
..SOUTHERN NORTH CAROLINA
 
 
 
CITY SKY/WX TMP DP RH WIND PRES REMARKS
 
CHARLOTTE CLOUDY 53 26 35 NW23G37 30.10R  
MONROE CLOUDY 56 39 53 N17G29 30.08R  
WADESBORO CLOUDY 60 44 54 NW8 30.05R  
ROCKINGHAM CLOUDY 63 55 77 NW14G22 30.01R  
RUTHERFORDTON MOCLDY 46 23 39 N10G16 30.12R  
ASHEVILLE PTCLDY 40 17 39 NW23G38 30.15R WCI 30  
 

 
 
 
CLICK HERE TO GO TO PREVIOUS BULLETINS.

The Nexlab SC Page
The Nexlab GA Page Main Text Page